Previsão horária em Alimgulovo

Hoje, 22 Junho, Terça-feira

Tempo Temperatura Precipitação Vento Pressão Humidade
00:00 +17°C° 0 mm 0 m/s 736 mmHg 71%
01:00 +17°C° 0 mm 0 m/s 736 mmHg 71%
02:00 +16°C° 0.2 mm 0 m/s 736 mmHg 75%
03:00 +16°C° 0.2 mm 0 m/s 736 mmHg 80%
04:00 +15°C° 0 mm 0 m/s 736 mmHg 83%
05:00 +19°C° 0.1 mm 1 m/s 736 mmHg 80%
06:00 +20°C° 0.1 mm 1 m/s 736 mmHg 77%
07:00 +22°C° 0.1 mm 1 m/s 736 mmHg 75%
08:00 +23°C° 0 mm 1 m/s 736 mmHg 71%
09:00 +25°C° 0 mm 2 m/s 736 mmHg 67%
10:00 +26°C° 0 mm 2 m/s 736 mmHg 63%
11:00 +28°C° 0 mm 3 m/s 736 mmHg 57%
12:00 +29°C° 0 mm 3 m/s 736 mmHg 50%
13:00 +30°C° 0 mm 4 m/s 736 mmHg 44%
14:00 +30°C° 0 mm 4 m/s 736 mmHg 43%
15:00 +30°C° 0 mm 4 m/s 736 mmHg 42%
16:00 +32°C° 0 mm 5 m/s 736 mmHg 42%
17:00 +30°C° 0 mm 4 m/s 735 mmHg 49%
18:00 +29°C° 0 mm 3 m/s 735 mmHg 55%
19:00 +28°C° 0 mm 2 m/s 735 mmHg 62%
20:00 +26°C° 0 mm 1 m/s 735 mmHg 67%
21:00 +24°C° 0 mm 1 m/s 735 mmHg 71%
22:00 +22°C° 0 mm 1 m/s 735 mmHg 76%
23:00 +22°C° 0 mm 1 m/s 734 mmHg 77%

Amanhã, 23 Junho, Quarta-feira

Tempo Temperatura Precipitação Vento Pressão Humidade
00:00 +22°C° 0 mm 1 m/s 734 mmHg 78%
01:00 +21°C° 0 mm 1 m/s 734 mmHg 79%
02:00 +21°C° 0 mm 1 m/s 734 mmHg 79%
03:00 +21°C° 0 mm 1 m/s 734 mmHg 79%
04:00 +19°C° 0 mm 0 m/s 734 mmHg 78%
05:00 +22°C° 0 mm 1 m/s 734 mmHg 75%
06:00 +24°C° 0 mm 1 m/s 734 mmHg 72%
07:00 +25°C° 0 mm 2 m/s 734 mmHg 68%
08:00 +26°C° 0 mm 2 m/s 734 mmHg 64%
09:00 +27°C° 0 mm 3 m/s 734 mmHg 61%
10:00 +28°C° 0 mm 4 m/s 734 mmHg 57%
11:00 +29°C° 0 mm 4 m/s 734 mmHg 52%
12:00 +30°C° 0 mm 5 m/s 734 mmHg 47%
13:00 +32°C° 0 mm 5 m/s 734 mmHg 41%
14:00 +30°C° 0.7 mm 5 m/s 733 mmHg 49%
15:00 +29°C° 0.7 mm 4 m/s 733 mmHg 56%
16:00 +27°C° 0.7 mm 3 m/s 733 mmHg 63%
17:00 +25°C° 1.7 mm 3 m/s 733 mmHg 71%
18:00 +23°C° 1.7 mm 2 m/s 733 mmHg 80%
19:00 +20°C° 1.7 mm 1 m/s 733 mmHg 88%
20:00 +20°C° 0.3 mm 1 m/s 733 mmHg 89%
21:00 +19°C° 0.3 mm 1 m/s 733 mmHg 91%
22:00 +18°C° 0.3 mm 1 m/s 733 mmHg 92%
23:00 +18°C° 0 mm 1 m/s 733 mmHg 92%

Depois de amanhã, 24 Junho, Quinta-feira

Tempo Temperatura Precipitação Vento Pressão Humidade
00:00 +18°C° 0 mm 1 m/s 733 mmHg 92%
01:00 +18°C° 0 mm 1 m/s 733 mmHg 92%
02:00 +18°C° 0 mm 1 m/s 733 mmHg 93%
03:00 +16°C° 0 mm 1 m/s 733 mmHg 93%
04:00 +16°C° 0 mm 1 m/s 733 mmHg 94%
05:00 +18°C° 0 mm 1 m/s 733 mmHg 92%
06:00 +18°C° 0 mm 2 m/s 733 mmHg 89%
07:00 +19°C° 0 mm 2 m/s 734 mmHg 87%
08:00 +20°C° 0 mm 2 m/s 734 mmHg 82%
09:00 +21°C° 0 mm 2 m/s 734 mmHg 78%
10:00 +23°C° 0 mm 2 m/s 734 mmHg 73%
11:00 +23°C° 0 mm 2 m/s 734 mmHg 71%
12:00 +24°C° 0 mm 2 m/s 734 mmHg 69%
13:00 +24°C° 0 mm 2 m/s 734 mmHg 67%
14:00 +25°C° 0 mm 2 m/s 734 mmHg 65%
15:00 +25°C° 0 mm 2 m/s 734 mmHg 62%
16:00 +26°C° 0 mm 1 m/s 734 mmHg 60%
17:00 +25°C° 0 mm 1 m/s 734 mmHg 63%
18:00 +25°C° 0 mm 1 m/s 734 mmHg 66%
19:00 +25°C° 0 mm 1 m/s 733 mmHg 68%
20:00 +23°C° 0 mm 1 m/s 733 mmHg 73%
21:00 +21°C° 0 mm 1 m/s 733 mmHg 77%
22:00 +19°C° 0 mm 1 m/s 732 mmHg 81%
23:00 +17°C° 0 mm 0 m/s 732 mmHg 82%

25 Junho, Sexta-feira

Tempo Temperatura Precipitação Vento Pressão Humidade
00:00 +16°C° 0 mm 0 m/s 732 mmHg 84%
01:00 +16°C° 0 mm 0 m/s 732 mmHg 85%
02:00 +16°C° 0 mm 0 m/s 732 mmHg 86%
03:00 +15°C° 0 mm 0 m/s 732 mmHg 86%
04:00 +15°C° 0 mm 0 m/s 732 mmHg 87%
05:00 +17°C° 0 mm 0 m/s 732 mmHg 82%
06:00 +19°C° 0 mm 0 m/s 732 mmHg 77%
07:00 +20°C° 0 mm 0 m/s 732 mmHg 72%
08:00 +24°C° 0 mm 1 m/s 731 mmHg 68%
09:00 +26°C° 0 mm 2 m/s 731 mmHg 64%
10:00 +27°C° 0 mm 2 m/s 731 mmHg 61%
11:00 +28°C° 0 mm 3 m/s 731 mmHg 57%
12:00 +29°C° 0 mm 3 m/s 731 mmHg 54%
13:00 +30°C° 0 mm 3 m/s 731 mmHg 50%
14:00 +30°C° 0 mm 3 m/s 731 mmHg 51%
15:00 +30°C° 0 mm 3 m/s 731 mmHg 52%
16:00 +30°C° 0 mm 3 m/s 730 mmHg 52%
17:00 +29°C° 0 mm 3 m/s 730 mmHg 57%
18:00 +28°C° 0 mm 3 m/s 730 mmHg 61%
19:00 +27°C° 0 mm 3 m/s 730 mmHg 66%
20:00 +25°C° 0 mm 2 m/s 730 mmHg 71%
21:00 +24°C° 0 mm 1 m/s 730 mmHg 77%
22:00 +22°C° 0 mm 1 m/s 730 mmHg 82%
23:00 +20°C° 0 mm 0 m/s 730 mmHg 84%

26 Junho, Sábado

Tempo Temperatura Precipitação Vento Pressão Humidade
00:00 +19°C° 0 mm 0 m/s 730 mmHg 85%
01:00 +19°C° 0 mm 0 m/s 730 mmHg 87%
02:00 +18°C° 0 mm 0 m/s 729 mmHg 88%
03:00 +18°C° 0 mm 0 m/s 729 mmHg 88%
04:00 +18°C° 0 mm 0 m/s 729 mmHg 89%
05:00 +19°C° 0 mm 0 m/s 729 mmHg 84%
06:00 +21°C° 0 mm 0 m/s 729 mmHg 80%
07:00 +22°C° 0 mm 0 m/s 730 mmHg 75%
08:00 +26°C° 0 mm 1 m/s 730 mmHg 69%
09:00 +27°C° 0 mm 2 m/s 730 mmHg 63%
10:00 +29°C° 0 mm 2 m/s 730 mmHg 57%
11:00 +29°C° 0 mm 2 m/s 729 mmHg 54%
12:00 +30°C° 0 mm 2 m/s 729 mmHg 50%
13:00 +31°C° 0 mm 3 m/s 729 mmHg 47%
14:00 +31°C° 0 mm 3 m/s 729 mmHg 46%
15:00 +33°C° 0 mm 3 m/s 729 mmHg 46%
16:00 +33°C° 0 mm 4 m/s 729 mmHg 45%
17:00 +32°C° 0 mm 4 m/s 729 mmHg 51%
18:00 +30°C° 0 mm 3 m/s 728 mmHg 57%
19:00 +28°C° 0 mm 3 m/s 728 mmHg 63%
20:00 +27°C° 0.1 mm 3 m/s 728 mmHg 70%
21:00 +25°C° 0.1 mm 2 m/s 728 mmHg 78%
22:00 +23°C° 0.1 mm 2 m/s 728 mmHg 85%
23:00 +23°C° 0 mm 2 m/s 728 mmHg 87%

27 Junho, Domingo

Tempo Temperatura Precipitação Vento Pressão Humidade
00:00 +21°C° 0 mm 2 m/s 728 mmHg 90%
01:00 +21°C° 0 mm 2 m/s 728 mmHg 92%
02:00 +20°C° 0 mm 2 m/s 728 mmHg 93%
03:00 +20°C° 0 mm 2 m/s 728 mmHg 93%
04:00 +19°C° 0 mm 2 m/s 728 mmHg 94%
05:00 +21°C° 0 mm 2 m/s 728 mmHg 89%
06:00 +23°C° 0 mm 2 m/s 728 mmHg 85%
07:00 +24°C° 0 mm 2 m/s 729 mmHg 81%
08:00 +26°C° 0 mm 2 m/s 729 mmHg 72%
09:00 +27°C° 0 mm 3 m/s 729 mmHg 64%
10:00 +29°C° 0 mm 4 m/s 729 mmHg 56%
11:00 +29°C° 0 mm 4 m/s 729 mmHg 52%
12:00 +30°C° 0 mm 4 m/s 728 mmHg 48%
13:00 +32°C° 0 mm 4 m/s 728 mmHg 44%
14:00 +32°C° 0 mm 4 m/s 728 mmHg 44%
15:00 +32°C° 0 mm 4 m/s 728 mmHg 44%
16:00 +32°C° 0 mm 4 m/s 728 mmHg 44%
17:00 +29°C° 0.2 mm 4 m/s 727 mmHg 55%
18:00 +27°C° 0.2 mm 4 m/s 727 mmHg 66%
19:00 +25°C° 0.2 mm 3 m/s 727 mmHg 76%
20:00 +24°C° 0.3 mm 3 m/s 727 mmHg 81%
21:00 +23°C° 0.3 mm 2 m/s 726 mmHg 86%
22:00 +20°C° 0.3 mm 2 m/s 726 mmHg 91%
23:00 +20°C° 0 mm 2 m/s 726 mmHg 92%
Mostrar mais